Simultaneous Nadir Overpasses (SNOs) Predictions

Prediction of SNOs between LANDSAT-8 and METOP-B Satellite Orbit:

Table of predicted SNOs for the next 14.0 days since TLE Epoch: 3/2/2024
Index Date (LANDSAT-8) Time (LANDSAT-8) Lat,Lon (LANDSAT-8) SZA (LANDSAT-8 ) Date (METOP-B) Time (METOP-B) Lat,Lon (METOP-B) SZA (METOP-B ) Distance(km) Time Diff (sec)
1 03/03/2024 13:48:14 -81.29,-164.83 90.31 03/03/2024 13:47:45 -81.29,-165.02 90.34 3.19 29
2 03/03/2024 14:37:39 81.32, 3.33 89.75 03/03/2024 14:38:23 81.31, 3.29 89.76 0.89 44
3 03/06/2024 09:22:25 -81.31, -98.01 91.33 03/06/2024 09:22:08 -81.30, -97.95 91.33 1.00 17
4 03/06/2024 10:11:51 81.32, 69.76 88.68 03/06/2024 10:12:48 81.31, 69.57 88.68 3.23 57
5 03/09/2024 04:56:36 -81.30, -31.75 92.43 03/09/2024 04:56:32 -81.30, -31.73 92.43 0.47 4
6 03/09/2024 05:46:01 81.32, 136.36 87.63 03/09/2024 05:47:10 81.32, 136.56 87.67 3.23 69
7 03/11/2024 23:41:20 81.30,-132.87 86.51 03/11/2024 23:40:16 81.29,-132.99 86.47 2.28 64
8 03/12/2024 00:30:47 -81.30, 34.69 93.52 03/12/2024 00:30:56 -81.30, 34.81 93.50 2.18 9
9 03/14/2024 19:15:31 81.29, -66.65 85.39 03/14/2024 19:14:40 81.30, -66.54 85.39 2.02 51



Historial Predications of SNOs between LANDSAT-8 and METOP-B
